Caro, MI

7:48 AM EDT on July 22, 2017 (GMT -0400)
Caro

Weather History for KCFS - January, 2013

Change the Weather History Date:

Wednesday, January 23, 2013

  Actual Average (KMBS) Record (KMBS)
Temperature  
Mean Temperature 8 °F -  
Max Temperature 16 °F 25 °F 48 °F (1999)
Min Temperature 0 °F 12 °F -4 °F (2004)
Degree Days  
Heating Degree Days 57    
Moisture  
Dew Point 2 °F    
Average Humidity 74    
Maximum Humidity 88    
Minimum Humidity 60    
Precipitation  
Precipitation 0.00 in - - ()
Sea Level Pressure  
Sea Level Pressure 30.14 in    
Wind  
Wind Speed 6 mph (SW)    
Max Wind Speed 13 mph    
Max Gust Speed 18 mph    
Visibility 8 miles    
Events Snow    
Averages and records for this station are not official NWS values.
T = Trace of Precipitation, MM = Missing Value Source: NWS Daily Summary

Daily Weather History Graph

Daily Weather History Graph

Search for Another Location

Airport or City:

Trip Planner

Search our weather history database for the weather conditions in past years. The results will help you decide how hot, cold, wet, or windy it might be!

Date:

Astronomy

Jan. 23, 2013 Rise Set
Actual Time 7:58 AM EST 5:33 PM EST
Civil Twilight 7:27 AM EST 6:04 PM EST
Nautical Twilight 6:52 AM EST 6:39 PM EST
Astronomical Twilight 6:18 AM EST 7:13 PM EST
Moon 2:41 PM EST (1/23) 5:10 AM EST (1/23)
Length of Visible Light 10h 37m
Length of Day
9h 35m
Waxing Gibbous, 89% of the Moon is Illuminated
Jan 23
Waxing Gibbous
Jan 26
Full
Feb 3
Last Quarter
Feb 10
New
Feb 17
First Quarter

Hourly Weather History & Observations

Time (EST) Temp. Windchill Dew Point Humidity Pressure Visibility Wind Dir Wind Speed Gust Speed Precip Events Conditions
12:14 AM 3.6 °F -5.7 °F -6.0 °F 65% 30.23 in 10.0 mi WSW 4.6 mph - N/A   Clear
12:35 AM 2.7 °F -6.8 °F -6.3 °F 66% 30.23 in 10.0 mi WSW 4.6 mph - N/A   Clear
12:54 AM 3.0 °F -8.0 °F -6.2 °F 66% 30.23 in 10.0 mi WSW 5.8 mph - N/A   Clear
1:15 AM 3.0 °F -8.0 °F -6.0 °F 66% 30.23 in 10.0 mi WSW 5.8 mph - N/A   Clear
1:35 AM 2.8 °F -8.2 °F -6.0 °F 67% 30.22 in 10.0 mi WSW 5.8 mph - N/A   Clear
1:54 AM 2.1 °F -7.4 °F -6.2 °F 68% 30.23 in 10.0 mi SW 4.6 mph - N/A   Clear
2:15 AM 1.4 °F -9.9 °F -6.2 °F 71% 30.23 in 10.0 mi SW 5.8 mph - N/A   Clear
2:35 AM 2.5 °F -8.6 °F -4.9 °F 71% 30.23 in 10.0 mi WSW 5.8 mph - N/A   Scattered Clouds
2:54 AM 1.4 °F -8.3 °F -6.0 °F 71% 30.23 in 10.0 mi SW 4.6 mph - N/A   Mostly Cloudy
3:15 AM 2.5 °F -8.6 °F -4.2 °F 74% 30.23 in 10.0 mi SW 5.8 mph - N/A   Overcast
3:35 AM 3.7 °F -7.1 °F -3.1 °F 73% 30.23 in 10.0 mi SW 5.8 mph - N/A   Overcast
3:54 AM 4.1 °F -6.7 °F -3.1 °F 72% 30.22 in 10.0 mi SSW 5.8 mph - N/A   Overcast
4:14 AM 3.6 °F -7.3 °F -3.3 °F 73% 30.22 in 10.0 mi SW 5.8 mph - N/A   Overcast
4:35 AM 4.1 °F -6.7 °F -2.9 °F 73% 30.22 in 10.0 mi SW 5.8 mph - N/A   Overcast
4:54 AM 4.8 °F -7.1 °F -2.2 °F 73% 30.22 in 10.0 mi SW 6.9 mph - N/A   Overcast
5:15 AM 5.0 °F -4.1 °F -2.0 °F 73% 30.21 in 10.0 mi SW 4.6 mph - N/A   Overcast
5:34 AM 5.2 °F -6.7 °F -2.2 °F 72% 30.20 in 10.0 mi SW 6.9 mph - N/A   Overcast
5:54 AM 4.8 °F -4.3 °F -2.2 °F 73% 30.21 in 10.0 mi SW 4.6 mph - N/A   Overcast
6:15 AM 3.2 °F -6.2 °F -3.5 °F 74% 30.21 in 10.0 mi SW 4.6 mph - N/A   Scattered Clouds
6:34 AM 3.0 °F -8.0 °F -3.5 °F 74% 30.20 in 10.0 mi SW 5.8 mph - N/A   Clear
6:55 AM 1.4 °F -9.9 °F -4.4 °F 77% 30.20 in 10.0 mi SSW 5.8 mph - N/A   Clear
7:14 AM 1.8 °F -9.5 °F -3.8 °F 77% 30.20 in 10.0 mi SW 5.8 mph - N/A   Mostly Cloudy
7:34 AM 1.4 °F -9.9 °F -4.2 °F 77% 30.20 in 10.0 mi SSW 5.8 mph - N/A   Mostly Cloudy
7:55 AM 0.9 °F -8.9 °F -4.0 °F 80% 30.19 in 10.0 mi SSW 4.6 mph - N/A   Scattered Clouds
8:14 AM 1.0 °F -8.7 °F -4.0 °F 79% 30.19 in 10.0 mi SSW 4.6 mph - N/A   Mostly Cloudy
8:35 AM 1.4 °F -9.9 °F -3.8 °F 79% 30.19 in 10.0 mi SSW 5.8 mph - N/A   Scattered Clouds
8:55 AM 2.1 °F -10.4 °F -3.3 °F 78% 30.19 in 10.0 mi SSW 6.9 mph - N/A   Scattered Clouds
9:14 AM 3.9 °F -9.4 °F -2.4 °F 75% 30.19 in 10.0 mi SW 8.1 mph - N/A   Mostly Cloudy
9:35 AM 5.7 °F -6.1 °F -2.2 °F 70% 30.19 in 10.0 mi SSW 6.9 mph - N/A   Mostly Cloudy
9:55 AM 6.6 °F -8.0 °F -2.2 °F 67% 30.19 in 10.0 mi SW 10.4 mph - N/A   Mostly Cloudy
10:14 AM 8.6 °F -7.0 °F -1.5 °F 64% 30.19 in 10.0 mi SW 12.7 mph - N/A   Overcast
10:35 AM 9.9 °F -4.0 °F -1.1 °F 61% 30.18 in 7.0 mi SW 10.4 mph 17.3 mph N/A   Overcast
10:55 AM 10.4 °F -4.1 °F 0.3 °F 64% 30.18 in 10.0 mi SW 11.5 mph 17.3 mph N/A   Overcast
11:14 AM 10.9 °F -4.1 °F 0.9 °F 64% 30.17 in 7.0 mi SSW 12.7 mph 18.4 mph N/A   Overcast
11:35 AM 11.3 °F -3.6 °F 1.2 °F 64% 30.17 in 5.0 mi SSW 12.7 mph - N/A   Haze
11:54 AM 12.0 °F -1.3 °F 1.9 °F 64% 30.16 in 7.0 mi SW 10.4 mph - N/A   Overcast
12:14 PM 12.9 °F -1.6 °F 2.3 °F 63% 30.15 in 7.0 mi SSW 12.7 mph - N/A   Overcast
12:35 PM 13.1 °F 1.8 °F 1.9 °F 61% 30.13 in 7.0 mi South 8.1 mph - N/A   Overcast
12:54 PM 14.0 °F 0.5 °F 2.8 °F 61% 30.12 in 10.0 mi SSW 11.5 mph - N/A   Overcast
1:14 PM 14.2 °F 0.0 °F 2.8 °F 61% 30.11 in 10.0 mi SW 12.7 mph 16.1 mph N/A   Overcast
1:35 PM 14.0 °F 0.5 °F 2.3 °F 60% 30.09 in 10.0 mi SW 11.5 mph - N/A   Overcast
1:54 PM 14.4 °F 0.2 °F 3.9 °F 63% 30.09 in 5.0 mi SSW 12.7 mph - N/A   Haze
2:15 PM 14.7 °F 1.4 °F 4.8 °F 65% 30.07 in 4.0 mi SW 11.5 mph 16.1 mph N/A   Haze
2:35 PM 15.3 °F 3.5 °F 5.7 °F 66% 30.07 in 5.0 mi WSW 9.2 mph - N/A   Haze
2:54 PM 15.8 °F 3.4 °F 6.3 °F 66% 30.07 in 5.0 mi SW 10.4 mph - N/A   Haze
3:15 PM 15.3 °F 4.4 °F 6.6 °F 69% 30.06 in 4.0 mi WSW 8.1 mph - N/A   Haze
3:35 PM 15.6 °F 7.0 °F 7.2 °F 69% 30.06 in 4.0 mi SW 5.8 mph - N/A Snow Light Snow
4:15 PM 15.8 °F 3.4 °F 8.8 °F 74% 30.05 in 4.0 mi SW 10.4 mph - N/A Snow Light Snow
4:35 PM 14.7 °F 3.8 °F 6.8 °F 71% 30.05 in 10.0 mi WSW 8.1 mph - N/A   Mostly Cloudy
4:54 PM 14.5 °F 8.8 °F 7.2 °F 73% 30.05 in 10.0 mi WSW 3.5 mph - N/A   Scattered Clouds
5:15 PM 15.4 °F - 8.4 °F 74% 30.05 in 3.0 mi Calm Calm - N/A Snow Light Snow
5:34 PM 16.5 °F - 9.5 °F 74% 30.05 in 2.0 mi Calm Calm - N/A Snow Light Snow
5:54 PM 16.7 °F - 10.8 °F 77% 30.05 in 1.0 mi Calm Calm - N/A Snow Snow
6:15 PM 14.4 °F - 10.0 °F 83% 30.05 in 1.5 mi Calm Calm - N/A Snow Light Snow
6:34 PM 13.6 °F - 10.0 °F 86% 30.05 in 7.0 mi Calm Calm - N/A   Overcast
6:54 PM 12.6 °F - 9.3 °F 87% 30.05 in 7.0 mi Calm Calm - N/A   Overcast
7:15 PM 12.7 °F - 9.5 °F 87% 30.05 in 10.0 mi Calm Calm - N/A   Overcast
7:34 PM 13.1 °F - 10.2 °F 88% 30.05 in 10.0 mi Calm Calm - N/A   Overcast
7:54 PM 13.8 °F - 10.9 °F 88% 30.05 in 7.0 mi Calm Calm - N/A Snow Light Snow
8:14 PM 14.0 °F - 11.1 °F 88% 30.05 in 5.0 mi Calm Calm - N/A Snow Light Snow
8:34 PM 16.2 °F 10.6 °F 12.2 °F 84% 30.05 in 4.0 mi West 3.5 mph - N/A Snow Light Snow
8:54 PM 16.0 °F 8.8 °F 11.5 °F 82% 30.05 in 3.0 mi West 4.6 mph - N/A Snow Light Snow
9:14 PM 15.8 °F 8.6 °F 11.3 °F 82% 30.06 in 4.0 mi WNW 4.6 mph - N/A Snow Light Snow
9:35 PM 16.0 °F 8.8 °F 11.8 °F 84% 30.07 in 3.0 mi NW 4.6 mph - N/A Snow Light Snow
9:54 PM 14.9 °F 6.1 °F 11.3 °F 86% 30.07 in 3.0 mi North 5.8 mph - N/A Snow Light Snow
10:14 PM 14.9 °F 6.1 °F 11.5 °F 86% 30.07 in 2.5 mi North 5.8 mph - N/A Snow Light Snow
10:35 PM 14.9 °F 7.5 °F 10.9 °F 84% 30.08 in 3.0 mi North 4.6 mph - N/A Snow Light Snow
10:54 PM 14.5 °F 7.1 °F 10.4 °F 84% 30.09 in 10.0 mi NNW 4.6 mph - N/A   Overcast
11:14 PM 13.8 °F 8.0 °F 9.7 °F 84% 30.09 in 7.0 mi NW 3.5 mph - N/A   Overcast
11:34 PM 11.7 °F 3.7 °F 7.7 °F 84% 30.10 in 7.0 mi NW 4.6 mph - N/A   Scattered Clouds
11:54 PM 9.9 °F 1.6 °F 6.6 °F 87% 30.10 in 10.0 mi NW 4.6 mph - N/A   Clear